Location: Julian California
(33.0790°N, 116.6010°W)
Time: 05:40:16
(UTC-07:00)

Cosmos 1610 Rocket - Pass Details

Date: 19 May 2017
Orbit: 952 x 1003 km, 82.9° (Epoch: 22 July)

Event Time Altitude Azimuth Distance (km) Brightness Sun altitude
Rises 22:00:58 0° 356° (N) 3,705 8.3 -24.3°
Reaches altitude 10° 22:03:31 10° 358° (N) 2,746 7.5 -24.7°
Maximum altitude 22:09:49 74° 84° (E) 1,013 4.4 -25.5°
Enters shadow 22:10:49 62° 141° (SE) 1,090 4.4 -25.7°
